• In Deutschland
  • Länderverzeichnis
  • Für 7 Tage
  • Wassertemperatur
  • Satellitenkarten
  • Wetterkarte
  • Widgets
  • user-avatar
    Anmelden

    Stündliche Wetter Mauritius

    Heute, 16 Januar, Dienstag

    Zeit Temperatur Niederschläge Wind Luftdruck Luftfeuchtigkeit
    00:00 +26°C° 0,1 mm 11 m/S 719 mmHg 76%
    01:00 +26°C° 0,1 mm 11 m/S 719 mmHg 75%
    02:00 +26°C° 0,1 mm 11 m/S 719 mmHg 74%
    03:00 +26°C° 0,1 mm 11 m/S 718 mmHg 74%
    04:00 +26°C° 0 mm 11 m/S 719 mmHg 74%
    05:00 +26°C° 0 mm 11 m/S 719 mmHg 73%
    06:00 +26°C° 0 mm 11 m/S 719 mmHg 72%
    07:00 +26°C° 0 mm 12 m/S 719 mmHg 72%
    08:00 +26°C° 0 mm 12 m/S 719 mmHg 71%
    09:00 +26°C° 0 mm 12 m/S 719 mmHg 71%
    10:00 +27°C° 0 mm 12 m/S 719 mmHg 70%
    11:00 +27°C° 0,1 mm 12 m/S 719 mmHg 71%
    12:00 +27°C° 0,1 mm 12 m/S 718 mmHg 72%
    13:00 +27°C° 0,1 mm 12 m/S 718 mmHg 73%
    14:00 +27°C° 0,4 mm 12 m/S 717 mmHg 75%
    15:00 +26°C° 0,4 mm 13 m/S 717 mmHg 77%
    16:00 +26°C° 0,4 mm 13 m/S 717 mmHg 78%
    17:00 +26°C° 0,5 mm 13 m/S 717 mmHg 80%
    18:00 +26°C° 0,5 mm 13 m/S 716 mmHg 81%
    19:00 +26°C° 0,5 mm 14 m/S 716 mmHg 82%
    20:00 +26°C° 1,3 mm 14 m/S 716 mmHg 82%
    21:00 +26°C° 1,3 mm 14 m/S 716 mmHg 83%
    22:00 +26°C° 1,3 mm 14 m/S 716 mmHg 83%
    23:00 +26°C° 1,5 mm 15 m/S 715 mmHg 84%

    Morgen, 17 Januar, Mittwoch

    Zeit Temperatur Niederschläge Wind Luftdruck Luftfeuchtigkeit
    00:00 +26°C° 1,5 mm 15 m/S 715 mmHg 84%
    01:00 +26°C° 1,5 mm 15 m/S 714 mmHg 84%
    02:00 +26°C° 1 mm 15 m/S 713 mmHg 84%
    03:00 +26°C° 1 mm 15 m/S 712 mmHg 84%
    04:00 +26°C° 1 mm 16 m/S 712 mmHg 84%
    05:00 +26°C° 0,7 mm 16 m/S 711 mmHg 84%
    06:00 +26°C° 0,7 mm 16 m/S 711 mmHg 84%
    07:00 +26°C° 0,7 mm 16 m/S 711 mmHg 84%
    08:00 +26°C° 1,5 mm 16 m/S 710 mmHg 84%
    09:00 +26°C° 1,5 mm 16 m/S 710 mmHg 85%
    10:00 +26°C° 1,5 mm 16 m/S 709 mmHg 85%
    11:00 +25°C° 3 mm 17 m/S 709 mmHg 85%
    12:00 +25°C° 3 mm 17 m/S 708 mmHg 85%
    13:00 +25°C° 3 mm 18 m/S 707 mmHg 85%
    14:00 +25°C° 7 mm 20 m/S 706 mmHg 85%
    15:00 +25°C° 7 mm 22 m/S 706 mmHg 85%
    16:00 +25°C° 7 mm 24 m/S 705 mmHg 85%
    17:00 +25°C° 19,9 mm 25 m/S 705 mmHg 85%
    18:00 +25°C° 19,9 mm 27 m/S 705 mmHg 85%
    19:00 +25°C° 19,9 mm 28 m/S 704 mmHg 85%
    20:00 +25°C° 14 mm 27 m/S 705 mmHg 86%
    21:00 +25°C° 14 mm 26 m/S 705 mmHg 88%
    22:00 +25°C° 14 mm 24 m/S 705 mmHg 89%
    23:00 +27°C° 2,8 mm 24 m/S 705 mmHg 86%

    übermorgen, 18 Januar, Donnerstag

    Zeit Temperatur Niederschläge Wind Luftdruck Luftfeuchtigkeit
    00:00 +27°C° 2,8 mm 24 m/S 705 mmHg 83%
    01:00 +27°C° 2,8 mm 24 m/S 705 mmHg 80%
    02:00 +27°C° 1,2 mm 22 m/S 705 mmHg 79%
    03:00 +27°C° 1,2 mm 21 m/S 705 mmHg 79%
    04:00 +27°C° 1,2 mm 20 m/S 706 mmHg 78%
    05:00 +27°C° 0,3 mm 18 m/S 707 mmHg 79%
    06:00 +27°C° 0,3 mm 16 m/S 708 mmHg 80%
    07:00 +27°C° 0,3 mm 15 m/S 709 mmHg 81%
    08:00 +27°C° 0,5 mm 13 m/S 710 mmHg 81%
    09:00 +27°C° 0,5 mm 12 m/S 711 mmHg 81%
    10:00 +27°C° 0,5 mm 10 m/S 712 mmHg 80%
    11:00 +28°C° 0,6 mm 10 m/S 712 mmHg 80%
    12:00 +28°C° 0,6 mm 9 m/S 713 mmHg 79%
    13:00 +28°C° 0,6 mm 8 m/S 713 mmHg 78%
    14:00 +28°C° 0,1 mm 8 m/S 713 mmHg 78%
    15:00 +28°C° 0,1 mm 8 m/S 714 mmHg 77%
    16:00 +28°C° 0,1 mm 8 m/S 714 mmHg 77%
    17:00 +28°C° 0 mm 7 m/S 714 mmHg 78%
    18:00 +27°C° 0 mm 7 m/S 715 mmHg 80%
    19:00 +27°C° 0 mm 7 m/S 715 mmHg 82%
    20:00 +27°C° 0 mm 7 m/S 716 mmHg 83%
    21:00 +27°C° 0 mm 7 m/S 716 mmHg 83%
    22:00 +27°C° 0 mm 7 m/S 717 mmHg 84%
    23:00 +27°C° 0 mm 7 m/S 717 mmHg 84%

    19 Januar, Freitag

    Zeit Temperatur Niederschläge Wind Luftdruck Luftfeuchtigkeit
    00:00 +26°C° 0 mm 7 m/S 717 mmHg 84%
    01:00 +26°C° 0 mm 7 m/S 716 mmHg 84%
    02:00 +26°C° 0 mm 7 m/S 716 mmHg 84%
    03:00 +26°C° 0 mm 7 m/S 716 mmHg 84%
    04:00 +26°C° 0 mm 7 m/S 716 mmHg 84%
    05:00 +26°C° 0,1 mm 6 m/S 716 mmHg 84%
    06:00 +26°C° 0,1 mm 6 m/S 717 mmHg 83%
    07:00 +27°C° 0,1 mm 6 m/S 717 mmHg 82%
    08:00 +27°C° 0,1 mm 6 m/S 718 mmHg 80%
    09:00 +28°C° 0,1 mm 6 m/S 718 mmHg 77%
    10:00 +29°C° 0,1 mm 6 m/S 718 mmHg 74%
    11:00 +29°C° 0,2 mm 6 m/S 718 mmHg 74%
    12:00 +29°C° 0,2 mm 6 m/S 718 mmHg 73%
    13:00 +29°C° 0,2 mm 6 m/S 718 mmHg 72%
    14:00 +29°C° 0,3 mm 5 m/S 718 mmHg 74%
    15:00 +29°C° 0,3 mm 5 m/S 718 mmHg 75%
    16:00 +29°C° 0,3 mm 5 m/S 717 mmHg 76%
    17:00 +28°C° 0,4 mm 4 m/S 718 mmHg 78%
    18:00 +28°C° 0,4 mm 4 m/S 718 mmHg 80%
    19:00 +27°C° 0,4 mm 3 m/S 719 mmHg 82%
    20:00 +27°C° 0,1 mm 4 m/S 720 mmHg 83%
    21:00 +27°C° 0,1 mm 4 m/S 720 mmHg 85%
    22:00 +27°C° 0,1 mm 4 m/S 721 mmHg 86%
    23:00 +26°C° 0 mm 4 m/S 720 mmHg 86%

    20 Januar, Samstag

    Zeit Temperatur Niederschläge Wind Luftdruck Luftfeuchtigkeit
    00:00 +26°C° 0 mm 4 m/S 720 mmHg 87%
    01:00 +26°C° 0 mm 3 m/S 720 mmHg 87%
    02:00 +26°C° 0 mm 3 m/S 720 mmHg 87%
    03:00 +26°C° 0 mm 3 m/S 719 mmHg 87%
    04:00 +26°C° 0 mm 3 m/S 719 mmHg 87%
    05:00 +26°C° 0 mm 4 m/S 719 mmHg 87%
    06:00 +26°C° 0 mm 4 m/S 720 mmHg 86%
    07:00 +26°C° 0 mm 4 m/S 720 mmHg 86%
    08:00 +27°C° 0,1 mm 4 m/S 721 mmHg 83%
    09:00 +27°C° 0,1 mm 4 m/S 721 mmHg 80%
    10:00 +28°C° 0,1 mm 4 m/S 721 mmHg 77%
    11:00 +28°C° 0,3 mm 4 m/S 721 mmHg 75%
    12:00 +28°C° 0,3 mm 4 m/S 720 mmHg 74%
    13:00 +29°C° 0,3 mm 4 m/S 720 mmHg 73%
    14:00 +28°C° 0,7 mm 4 m/S 720 mmHg 74%
    15:00 +28°C° 0,7 mm 4 m/S 720 mmHg 75%
    16:00 +28°C° 0,7 mm 4 m/S 719 mmHg 76%
    17:00 +27°C° 1,1 mm 4 m/S 720 mmHg 78%
    18:00 +27°C° 1,1 mm 4 m/S 720 mmHg 80%
    19:00 +26°C° 1,1 mm 4 m/S 720 mmHg 83%
    20:00 +26°C° 0,5 mm 5 m/S 720 mmHg 84%
    21:00 +26°C° 0,5 mm 5 m/S 721 mmHg 85%
    22:00 +26°C° 0,5 mm 5 m/S 721 mmHg 86%
    23:00 +26°C° 0,4 mm 5 m/S 721 mmHg 86%

    21 Januar, Sonntag

    Zeit Temperatur Niederschläge Wind Luftdruck Luftfeuchtigkeit
    00:00 +26°C° 0,4 mm 5 m/S 720 mmHg 86%
    01:00 +26°C° 0,4 mm 5 m/S 720 mmHg 86%
    02:00 +26°C° 0,4 mm 5 m/S 720 mmHg 86%
    03:00 +25°C° 0,4 mm 5 m/S 719 mmHg 86%
    04:00 +25°C° 0,4 mm 5 m/S 719 mmHg 86%
    05:00 +25°C° 0,2 mm 5 m/S 720 mmHg 86%
    06:00 +26°C° 0,2 mm 5 m/S 720 mmHg 85%
    07:00 +26°C° 0,2 mm 6 m/S 720 mmHg 85%
    08:00 +26°C° 0 mm 6 m/S 720 mmHg 82%
    09:00 +27°C° 0 mm 6 m/S 720 mmHg 80%
    10:00 +28°C° 0 mm 6 m/S 720 mmHg 77%
    11:00 +28°C° 0 mm 6 m/S 720 mmHg 76%
    12:00 +28°C° 0 mm 6 m/S 720 mmHg 75%
    13:00 +28°C° 0 mm 6 m/S 719 mmHg 74%
    14:00 +28°C° 0,2 mm 6 m/S 719 mmHg 73%
    15:00 +28°C° 0,2 mm 6 m/S 719 mmHg 73%
    16:00 +28°C° 0,2 mm 6 m/S 719 mmHg 73%
    17:00 +28°C° 0,1 mm 6 m/S 719 mmHg 75%
    18:00 +27°C° 0,1 mm 6 m/S 719 mmHg 77%
    19:00 +27°C° 0,1 mm 6 m/S 720 mmHg 79%
    20:00 +26°C° 0 mm 6 m/S 720 mmHg 80%
    21:00 +26°C° 0 mm 6 m/S 720 mmHg 82%
    22:00 +26°C° 0 mm 6 m/S 720 mmHg 83%
    23:00 +26°C° 0 mm 6 m/S 720 mmHg 83%
    Mehr zeigen